Location: Unspecified
(0.0000°N, 0.0000°E)
Time: 21:19:00
(UTC+00:00)

deb Kosmos-1275 - Pass Details

Date: 11 March 2026
Orbit: 936 x 1103 km, 82.9° (Epoch: 11 April)

Event Time Altitude Azimuth Distance (km) Brightness Sun altitude
Rises 19:31:25 0° 327° (NNW) 3,901 ? -20.3°
Reaches altitude 10° 19:34:50 10° 311° (NW) 2,934 ? -21.2°
Maximum altitude 19:39:27 20° 268° (W) 2,286 ? -22.3°
Drops below altitude 10° 19:44:02 10° 224° (SW) 2,883 ? -23.5°
Sets 19:47:24 0° 207° (SSW) 3,810 ? -24.3°
